Location: Prague
(50.0830°N, 14.4670°E)
Time: 13:06:39
(UTC+01:00)

N. Korean satellite - Visible Passes

Search period start: 29 November 2022 00:00
Search period end: 09 December 2022 00:00
Orbit: 421 x 454 km, 97.3° (Epoch: 28 November)

Date Brightness Start Highest point End Pass type
(mag) Time Alt. Az. Time Alt. Az. Time Alt. Az.
29 Nov 9.1 04:38:00 10° NE 04:40:37 20° E 04:43:12 10° SE visible
29 Nov 7.1 06:10:07 10° N 06:13:12 32° WNW 06:16:16 10° SW visible
29 Nov 7.6 16:43:26 10° S 16:46:43 49° W 16:50:02 10° NNW visible
30 Nov 6.3 05:31:10 10° NNE 05:34:37 87° ESE 05:38:01 10° SSW visible
30 Nov 9.9 17:39:24 10° WSW 17:40:51 12° W 17:42:18 10° WNW visible
01 Dec 8.4 04:52:44 10° NNE 04:55:46 29° E 04:58:46 10° SSE visible
01 Dec 7.6 06:25:26 10° NNW 06:28:10 22° WNW 06:30:52 10° WSW visible
01 Dec 8.5 16:58:44 10° SSW 17:01:47 32° W 17:04:54 10° NNW visible
02 Dec 9.9 04:15:40 10° ENE 04:16:40 11° E 04:17:40 10° ESE visible
02 Dec 6.3 05:46:11 10° N 05:49:35 61° WNW 05:52:55 10° SSW visible
03 Dec 7.6 05:07:27 10° NNE 05:10:45 43° E 05:13:59 10° S visible
03 Dec 8.0 06:40:46 10° NNW 06:42:57 16° WNW 06:45:07 10° WSW visible
03 Dec 9.2 17:14:02 10° SSW 17:16:45 22° W 17:19:30 10° NW visible
04 Dec 9.5 04:29:29 10° NE 04:31:40 16° E 04:33:49 10° SE visible
04 Dec 6.8 06:01:09 10° N 06:04:22 40° WNW 06:07:33 10° SW visible
04 Dec 7.0 16:34:22 10° S 16:37:44 64° W 16:41:08 10° NNW visible
05 Dec 6.7 05:22:08 10° NNE 05:25:33 66° ESE 05:28:54 10° S visible
05 Dec 8.3 06:56:18 10° NW 06:57:34 12° WNW 06:58:49 10° W visible
05 Dec 9.6 17:29:29 10° SW 17:31:36 16° W 17:33:44 10° NW visible
06 Dec 8.9 04:43:43 10° NE 04:46:29 22° E 04:49:12 10° SSE visible
06 Dec 7.3 06:16:03 10° N 06:18:59 28° WNW 06:21:54 10° SW visible
06 Dec 7.9 16:49:12 10° S 16:52:26 42° W 16:55:43 10° NNW visible
07 Dec 6.2 05:36:46 10° N 05:40:11 81° WNW 05:43:33 10° SSW visible
07 Dec 10.0 17:45:26 10° WSW 17:46:21 11° W 17:47:15 10° WNW visible
08 Dec 8.2 04:58:00 10° NNE 05:01:07 32° E 05:04:10 10° SSE visible
08 Dec 7.7 06:30:53 10° NNW 06:33:26 20° WNW 06:35:56 10° WSW visible
08 Dec 8.7 17:04:02 10° SSW 17:07:01 28° W 17:10:02 10° NW visible
